When you browse on this site, cookies collect data to enhance your experience and personalize the content and advertising you see.
Visit our Privacy Policy to learn more. By continuing to use the site, you agree to this use of cookies and data.
  • In Slovakia
  • List of Countries
  • For 7 days
  • Water Temperature
  • Satellite Maps
  • Weather Map
  • Weather Widgets
  • user-avatar
    Login

    Hourly Weather Sidi Bu-l-Abbas

    Today, 18 January, Friday

    Time Temperature Precipitation Wind Pressure Humidity
    00:00 +8°C° 0 mm 1 mps 720 mmHg 73%
    01:00 +8°C° 0 mm 1 mps 720 mmHg 76%
    02:00 +7°C° 0 mm 1 mps 720 mmHg 79%
    03:00 +7°C° 0 mm 1 mps 720 mmHg 82%
    04:00 +7°C° 0 mm 1 mps 720 mmHg 83%
    05:00 +7°C° 0 mm 1 mps 720 mmHg 84%
    06:00 +7°C° 0 mm 1 mps 720 mmHg 85%
    07:00 +8°C° 0 mm 1 mps 720 mmHg 78%
    08:00 +8°C° 0 mm 2 mps 721 mmHg 72%
    09:00 +9°C° 0 mm 2 mps 721 mmHg 65%
    10:00 +12°C° 0 mm 2 mps 721 mmHg 59%
    11:00 +12°C° 0 mm 3 mps 721 mmHg 54%
    12:00 +13°C° 0 mm 4 mps 721 mmHg 48%
    13:00 +13°C° 0 mm 4 mps 721 mmHg 49%
    14:00 +13°C° 0 mm 5 mps 721 mmHg 50%
    15:00 +13°C° 0 mm 5 mps 720 mmHg 50%
    16:00 +12°C° 0 mm 5 mps 720 mmHg 60%
    17:00 +11°C° 0 mm 4 mps 720 mmHg 71%
    18:00 +9°C° 0 mm 3 mps 720 mmHg 81%
    19:00 +9°C° 0 mm 3 mps 720 mmHg 83%
    20:00 +9°C° 0 mm 3 mps 721 mmHg 85%
    21:00 +8°C° 0 mm 2 mps 721 mmHg 88%
    22:00 +8°C° 0 mm 2 mps 721 mmHg 88%
    23:00 +8°C° 0 mm 2 mps 721 mmHg 89%

    Tomorrow, 19 January, Saturday

    Time Temperature Precipitation Wind Pressure Humidity
    00:00 +8°C° 0 mm 2 mps 721 mmHg 89%
    01:00 +8°C° 0.1 mm 2 mps 721 mmHg 88%
    02:00 +8°C° 0.1 mm 2 mps 721 mmHg 87%
    03:00 +8°C° 0.1 mm 3 mps 721 mmHg 86%
    04:00 +7°C° 0 mm 3 mps 720 mmHg 87%
    05:00 +6°C° 0 mm 4 mps 720 mmHg 88%
    06:00 +6°C° 0 mm 4 mps 720 mmHg 89%
    07:00 +7°C° 0.1 mm 5 mps 721 mmHg 84%
    08:00 +7°C° 0.1 mm 6 mps 721 mmHg 80%
    09:00 +8°C° 0.1 mm 7 mps 721 mmHg 76%
    10:00 +9°C° 0.1 mm 7 mps 721 mmHg 73%
    11:00 +9°C° 0.1 mm 6 mps 721 mmHg 71%
    12:00 +9°C° 0.1 mm 6 mps 721 mmHg 69%
    13:00 +10°C° 0 mm 6 mps 721 mmHg 64%
    14:00 +11°C° 0 mm 7 mps 720 mmHg 60%
    15:00 +11°C° 0 mm 7 mps 720 mmHg 55%
    16:00 +11°C° 0 mm 6 mps 720 mmHg 60%
    17:00 +11°C° 0 mm 4 mps 720 mmHg 64%
    18:00 +10°C° 0 mm 3 mps 720 mmHg 68%
    19:00 +10°C° 0 mm 3 mps 720 mmHg 70%
    20:00 +10°C° 0 mm 3 mps 720 mmHg 71%
    21:00 +10°C° 0 mm 3 mps 720 mmHg 72%
    22:00 +10°C° 0 mm 3 mps 720 mmHg 72%
    23:00 +10°C° 0 mm 4 mps 719 mmHg 71%

    Day after tomorrow, 20 January, Sunday

    Time Temperature Precipitation Wind Pressure Humidity
    00:00 +10°C° 0 mm 4 mps 719 mmHg 71%
    01:00 +10°C° 0.3 mm 4 mps 719 mmHg 73%
    02:00 +10°C° 0.3 mm 4 mps 718 mmHg 76%
    03:00 +10°C° 0.3 mm 4 mps 718 mmHg 78%
    04:00 +10°C° 0.7 mm 4 mps 718 mmHg 79%
    05:00 +9°C° 0.7 mm 5 mps 717 mmHg 79%
    06:00 +9°C° 0.7 mm 5 mps 717 mmHg 79%
    07:00 +10°C° 0.2 mm 7 mps 717 mmHg 77%
    08:00 +10°C° 0.2 mm 8 mps 717 mmHg 75%
    09:00 +11°C° 0.2 mm 9 mps 717 mmHg 74%
    10:00 +12°C° 0 mm 11 mps 717 mmHg 70%
    11:00 +12°C° 0 mm 13 mps 717 mmHg 66%
    12:00 +13°C° 0 mm 14 mps 717 mmHg 62%
    13:00 +13°C° 0.1 mm 14 mps 717 mmHg 63%
    14:00 +13°C° 0.1 mm 13 mps 717 mmHg 64%
    15:00 +13°C° 0.1 mm 13 mps 716 mmHg 65%
    16:00 +12°C° 0.3 mm 12 mps 717 mmHg 70%
    17:00 +11°C° 0.3 mm 10 mps 717 mmHg 76%
    18:00 +10°C° 0.3 mm 9 mps 717 mmHg 81%
    19:00 +8°C° 0.3 mm 9 mps 718 mmHg 83%
    20:00 +8°C° 0.3 mm 9 mps 718 mmHg 84%
    21:00 +8°C° 0.3 mm 9 mps 719 mmHg 85%
    22:00 +9°C° 1 mm 8 mps 719 mmHg 87%
    23:00 +8°C° 1 mm 7 mps 719 mmHg 89%

    21 January, Monday

    Time Temperature Precipitation Wind Pressure Humidity
    00:00 +8°C° 1 mm 6 mps 720 mmHg 91%
    01:00 +8°C° 0.5 mm 5 mps 720 mmHg 91%
    02:00 +8°C° 0.5 mm 4 mps 720 mmHg 90%
    03:00 +9°C° 0.5 mm 3 mps 720 mmHg 90%
    04:00 +8°C° 0.2 mm 3 mps 720 mmHg 90%
    05:00 +8°C° 0.2 mm 2 mps 720 mmHg 91%
    06:00 +8°C° 0.2 mm 2 mps 720 mmHg 92%
    07:00 +8°C° 0.2 mm 2 mps 721 mmHg 89%
    08:00 +9°C° 0.2 mm 2 mps 721 mmHg 86%
    09:00 +9°C° 0.2 mm 2 mps 721 mmHg 83%
    10:00 +9°C° 0.2 mm 3 mps 722 mmHg 78%
    11:00 +10°C° 0.2 mm 4 mps 722 mmHg 73%
    12:00 +9°C° 0.2 mm 5 mps 722 mmHg 68%
    13:00 +9°C° 0.2 mm 5 mps 722 mmHg 68%
    14:00 +9°C° 0.2 mm 6 mps 722 mmHg 68%
    15:00 +9°C° 0.2 mm 6 mps 721 mmHg 68%
    16:00 +9°C° 0.2 mm 5 mps 722 mmHg 71%
    17:00 +8°C° 0.2 mm 4 mps 722 mmHg 73%
    18:00 +8°C° 0.2 mm 3 mps 722 mmHg 76%
    19:00 +8°C° 0 mm 3 mps 723 mmHg 77%
    20:00 +7°C° 0 mm 2 mps 723 mmHg 78%
    21:00 +7°C° 0 mm 2 mps 723 mmHg 79%
    22:00 +6°C° 0 mm 2 mps 723 mmHg 79%
    23:00 +6°C° 0 mm 2 mps 723 mmHg 79%

    22 January, Tuesday

    Time Temperature Precipitation Wind Pressure Humidity
    00:00 +6°C° 0 mm 2 mps 723 mmHg 78%
    01:00 +6°C° 0 mm 2 mps 723 mmHg 78%
    02:00 +6°C° 0 mm 2 mps 723 mmHg 78%
    03:00 +5°C° 0 mm 3 mps 723 mmHg 78%
    04:00 +4°C° 0 mm 3 mps 723 mmHg 80%
    05:00 +4°C° 0 mm 3 mps 723 mmHg 81%
    06:00 +4°C° 0 mm 3 mps 723 mmHg 83%
    07:00 +5°C° 0 mm 3 mps 723 mmHg 80%
    08:00 +7°C° 0 mm 3 mps 724 mmHg 77%
    09:00 +7°C° 0 mm 3 mps 724 mmHg 74%
    10:00 +8°C° 0 mm 3 mps 724 mmHg 67%
    11:00 +8°C° 0 mm 4 mps 724 mmHg 60%
    12:00 +9°C° 0 mm 5 mps 725 mmHg 54%
    13:00 +10°C° 0 mm 5 mps 724 mmHg 53%
    14:00 +10°C° 0 mm 5 mps 723 mmHg 52%
    15:00 +10°C° 0 mm 5 mps 723 mmHg 51%
    16:00 +10°C° 0 mm 4 mps 723 mmHg 57%
    17:00 +8°C° 0 mm 4 mps 723 mmHg 64%
    18:00 +8°C° 0 mm 3 mps 722 mmHg 70%
    19:00 +7°C° 0 mm 3 mps 722 mmHg 73%
    20:00 +7°C° 0 mm 3 mps 723 mmHg 76%
    21:00 +5°C° 0 mm 3 mps 723 mmHg 78%
    22:00 +5°C° 0 mm 3 mps 722 mmHg 78%
    23:00 +5°C° 0 mm 4 mps 722 mmHg 77%

    23 January, Wednesday

    Time Temperature Precipitation Wind Pressure Humidity
    00:00 +5°C° 0 mm 4 mps 721 mmHg 77%
    01:00 +5°C° 0 mm 4 mps 721 mmHg 73%
    02:00 +5°C° 0 mm 4 mps 720 mmHg 69%
    03:00 +5°C° 0 mm 4 mps 720 mmHg 64%
    04:00 +5°C° 0 mm 5 mps 720 mmHg 67%
    05:00 +5°C° 0 mm 5 mps 720 mmHg 69%
    06:00 +4°C° 0 mm 6 mps 720 mmHg 72%
    07:00 +5°C° 0 mm 6 mps 720 mmHg 70%
    08:00 +5°C° 0 mm 7 mps 720 mmHg 67%
    09:00 +6°C° 0 mm 8 mps 720 mmHg 65%
    10:00 +7°C° 0 mm 8 mps 720 mmHg 63%
    11:00 +7°C° 0 mm 9 mps 719 mmHg 62%
    12:00 +7°C° 0 mm 9 mps 719 mmHg 61%
    13:00 +7°C° 0.1 mm 10 mps 718 mmHg 67%
    14:00 +7°C° 0.1 mm 11 mps 718 mmHg 74%
    15:00 +7°C° 0.1 mm 12 mps 717 mmHg 80%
    16:00 +7°C° 0.1 mm 12 mps 717 mmHg 81%
    17:00 +7°C° 0.1 mm 11 mps 717 mmHg 82%
    18:00 +7°C° 0.1 mm 11 mps 717 mmHg 82%
    19:00 +7°C° 0.1 mm 11 mps 717 mmHg 83%
    20:00 +7°C° 0.1 mm 12 mps 717 mmHg 83%
    21:00 +7°C° 0.1 mm 12 mps 717 mmHg 84%
    22:00 +7°C° 0.1 mm 12 mps 717 mmHg 84%
    23:00 +7°C° 0.1 mm 12 mps 716 mmHg 83%
    Show more